Regional Weather Roundup
Issued by NWS Cleveland, OH

Home | Current Version | Previous Version | Graphics & Text | Print | Product List | Glossary On
Versions: 1 2 3 4 5 6 7 8 9 10 11 12 13 14 15 16 17 18 19 20 21 22 23 24 25 26 27 28 29 30 31 32 33 34 35 36 37 38 39 40 41 42 43 44 45 46 47 48 49 50
000
ASUS41 KCLE 300210
RWRCLE
OHIO REGIONAL WEATHER ROUNDUP
NATIONAL WEATHER SERVICE WILMINGTON, OH
1000 PM EDT FRI AUG 29 2014

NOTE: "FAIR" INDICATES FEW OR NO CLOUDS BELOW 12,000 FEET WITH NO
SIGNIFICANT WEATHER AND/OR OBSTRUCTIONS TO VISIBILITY.

OHZ001>008-015>018-024>027-034-035-043-044-300300-
   NORTHWEST OHIO

CITY           SKY/WX    TMP DP  RH WIND       PRES   REMARKS
DEFIANCE       CLEAR     77  65  66 SE5       30.01S
FINDLAY        CLEAR     74  63  68 SE8       30.03S
TOLEDO EXPRESS PTCLDY    72  63  73 E3        30.02S
TOLEDO METCALF CLEAR     69  62  78 E8        30.03F
LIMA           CLEAR     74  64  71 E6        30.03S
$$

OHZ009>014-019>023-028>033-038-089-300300-
   NORTHEAST OHIO

CITY           SKY/WX    TMP DP  RH WIND       PRES   REMARKS
CLE-HOPKINS    CLEAR     70  53  54 SE6       30.08S
CLE-LAKEFRONT  CLEAR     74  53  48 SE6       30.06R
CUY CO. ARPT   PTCLDY    72  57  60 SE9       30.08F
LORAIN-ELYRIA  CLEAR     71  56  58 S6        30.07S
ASHTABULA      CLEAR     63  57  81 SE6       30.10S
AKRON-CANTON   CLEAR     71  55  56 SE7       30.10R
WOOSTER        CLEAR     65  57  75 SE5       30.10S
MANSFIELD      CLEAR     69  59  70 SE6       30.09R
YOUNGSTOWN     PTCLDY    65  55  70 SE6       30.12R
$$

OHZ042-051>053-060>062-070>072-077>081-300300-
  SOUTHWEST OHIO

CITY           SKY/WX    TMP DP  RH WIND       PRES   REMARKS
CINC-COVINGTON PTCLDY    78  67  68 SE8       30.03S
CINC-LUNKEN    PTCLDY    75  71  87 CALM      30.03R
HAMILTON       PTCLDY    73  72  96 CALM      30.03R
DAYTON         TSTM      74  69  85 S8        30.06R
WRIGHT-PAT AFB TSTM      76  70  80 SE6       30.05R
DAYTON GENERAL MOCLDY    73  68  84 E8        30.03R
WILMINGTON     MOCLDY    75  64  68 SE7       30.05S
$$

OHZ036-037-039>041-045>050-054>059-063>069-073>076-082>088-300300-
  CENTRAL AND SOUTHEAST OHIO

CITY           SKY/WX    TMP DP  RH WIND       PRES   REMARKS
COLUMBUS       MOCLDY    78  61  55 E8        30.06R
OSU AIRPORT    MOCLDY    75  62  64 E7        30.06R
BOLTON FIELD   PTCLDY    73  64  75 SE5       30.06F
RICKENBACK AFB PTCLDY    75  59  57 E6        30.06S
NEWARK         PTCLDY    67  64  90 CALM      30.08R
MARION         PTCLDY    72  61  68 SE7       30.06S
LANCASTER      MOCLDY    72  63  73 SE3       30.07S
ZANESVILLE     CLEAR     70  60  70 SE3       30.09R
NEW PHILLY     CLEAR     63  60  90 SE5       30.10S
$$



USA.gov is the U.S. government's official web portal to all federal, state and local government web resources and services.